Date String (YYYY-MM-DD hh:mm:ss) UTC,Instrument flags,Ambient pressure (hPa),Sample flow (lpm),Bypass flow (lpm),Sample temperature (°C),Ambient temperature (°C),ASC tube jacket temperature (°C),LED temperature (°C),Box temperature (°C),Sample RH (%),Span deviation,Mass concentration (μg/m³),Mass concentration (μg/m³),Mass concentration (μg/m³)
DateTimeUTC,F1_M11,P_M11,Q1_M11,Q2_M11,T1_M11,T2_M11,T3_M11,T4_M11,T5_M11,U1_M11,ZSPAN_M11,X0_M11,X2_M11,X1_M11
2022-06-26 14:00:00,,0839.1,5.02,0.00,30.7,29.6,00.0,39.6,32.5,18.2,0000.8,0010.49,0004.58,0003.78
2022-06-26 14:01:00,,0839.0,5.00,0.00,30.7,29.6,00.0,39.6,32.5,18.4,0000.4,0010.77,0004.56,0003.77
2022-06-26 14:02:00,,0839.0,4.99,0.00,30.7,29.6,00.0,39.6,32.5,18.8,0001.8,0011.39,0004.54,0003.76
2022-06-26 14:03:00,,0839.1,5.00,0.00,30.7,29.6,00.0,39.6,32.5,18.7,0000.0,0011.98,0004.52,0003.76
2022-06-26 14:04:00,,0839.0,5.00,0.00,30.7,29.6,00.0,39.6,32.5,18.3,0000.0,0011.04,0004.48,0003.74
2022-06-26 14:05:00,,0839.1,4.99,0.00,30.7,29.6,00.0,39.6,32.5,18.3,0000.0,0010.55,0004.46,0003.73
2022-06-26 14:06:00,,0839.2,5.01,0.00,30.7,29.6,00.0,39.6,32.5,18.4,0000.0,0010.63,0004.49,0003.73
2022-06-26 14:07:00,,0839.2,5.00,0.00,30.7,29.6,00.0,39.6,32.5,18.4,0000.0,0010.67,0004.49,0003.71
2022-06-26 14:08:00,,0839.2,5.01,0.00,30.7,29.6,00.0,39.6,32.5,18.3,0000.0,0011.04,0004.51,0003.71
2022-06-26 14:09:00,,0839.2,4.99,0.00,30.7,29.6,00.0,39.6,32.5,18.4,0000.0,0011.44,0004.47,0003.70
2022-06-26 14:10:00,,0839.2,5.01,0.00,30.7,29.6,00.0,39.6,32.5,18.2,0000.0,0010.88,0004.39,0003.68
2022-06-26 14:11:00,,0839.2,5.00,0.00,30.7,29.6,00.0,39.6,32.5,18.2,0000.0,0010.96,0004.38,0003.68
2022-06-26 14:12:00,,0839.2,5.00,0.00,30.7,29.6,00.0,39.6,32.5,18.3,0000.0,0010.89,0004.37,0003.68
2022-06-26 14:13:00,,0839.1,4.99,0.00,30.7,29.6,00.0,39.6,32.5,18.5,0000.0,0010.45,0004.41,0003.70
2022-06-26 14:14:00,,0839.2,5.00,0.00,30.7,29.6,00.0,39.6,32.5,18.5,0000.0,0010.19,0004.46,0003.70
2022-06-26 14:15:00,,0839.2,4.99,0.00,30.7,29.6,00.0,39.6,32.5,18.6,0000.0,0010.75,0004.51,0003.72
2022-06-26 14:16:00,,0839.2,5.00,0.00,30.7,29.6,00.0,39.6,32.5,18.7,0000.0,0011.69,0004.54,0003.74
2022-06-26 14:17:00,,0839.2,5.00,0.00,30.7,29.6,00.0,39.6,32.4,18.5,0000.0,0012.56,0004.56,0003.74
2022-06-26 14:18:00,,0839.3,4.99,0.00,30.7,29.6,00.0,39.6,32.4,18.2,0000.0,0012.77,0004.58,0003.76
2022-06-26 14:19:00,,0839.2,5.00,0.00,30.7,29.6,00.0,39.6,32.4,18.3,0000.0,0012.52,0004.58,0003.77
2022-06-26 14:20:00,,0839.2,5.00,0.00,30.7,29.6,00.0,39.5,32.4,18.8,0000.0,0012.84,0004.64,0003.79
2022-06-26 14:21:00,,0839.1,5.00,0.00,30.7,29.6,00.0,39.5,32.4,19.0,0000.0,0013.18,0004.69,0003.82
2022-06-26 14:22:00,,0839.1,5.01,0.00,30.7,29.6,00.0,39.5,32.4,19.1,0000.0,0013.69,0004.74,0003.84
2022-06-26 14:23:00,,0839.0,4.99,0.00,30.7,29.6,00.0,39.5,32.4,19.0,0000.0,0013.58,0004.78,0003.86
2022-06-26 14:24:00,,0839.0,5.01,0.00,30.7,29.6,00.0,39.5,32.4,19.1,0000.0,0013.54,0004.81,0003.88
2022-06-26 14:25:00,,0839.1,4.99,0.00,30.7,29.6,00.0,39.5,32.4,19.2,0000.0,0012.98,0004.80,0003.90
2022-06-26 14:26:00,,0839.1,5.00,0.00,30.7,29.6,00.0,39.5,32.4,19.1,0000.0,0013.18,0004.79,0003.91
2022-06-26 14:27:00,,0839.1,5.00,0.00,30.7,29.6,00.0,39.5,32.4,19.2,0000.0,0012.37,0004.79,0003.92
2022-06-26 14:28:00,,0839.2,5.00,0.00,30.7,29.6,00.0,39.5,32.4,19.1,0000.0,0011.55,0004.80,0003.93
2022-06-26 14:29:00,,0839.2,5.00,0.00,30.7,29.6,00.0,39.5,32.4,18.9,0000.0,0011.45,0004.84,0003.95
2022-06-26 14:30:00,,0839.3,5.00,0.00,30.7,29.6,00.0,39.5,32.4,19.0,0000.0,0012.08,0004.87,0003.96
2022-06-26 14:31:00,,0839.3,5.01,0.00,30.7,29.6,00.0,39.5,32.4,19.2,0000.0,0011.67,0004.85,0003.97
2022-06-26 14:32:00,,0839.3,5.01,0.00,30.7,29.6,00.0,39.5,32.4,19.0,0000.0,0011.66,0004.84,0003.97
2022-06-26 14:33:00,,0839.2,5.01,0.00,30.7,29.6,00.0,39.5,32.4,18.9,0000.0,0011.90,0004.81,0003.97
2022-06-26 14:34:00,,0839.3,5.00,0.00,30.7,29.6,00.0,39.5,32.4,19.1,0000.0,0012.63,0004.78,0003.96
2022-06-26 14:35:00,,0839.3,4.99,0.00,30.7,29.6,00.0,39.5,32.4,18.8,0000.0,0013.48,0004.73,0003.96
2022-06-26 14:36:00,,0839.3,5.02,0.00,30.7,29.6,00.0,39.5,32.4,18.7,0000.0,0013.83,0004.70,0003.94
2022-06-26 14:37:00,,0839.3,5.01,0.00,30.7,29.6,00.0,39.5,32.5,18.6,0000.0,0013.60,0004.71,0003.93
2022-06-26 14:38:00,,0839.3,4.99,0.00,30.7,29.6,00.0,39.5,32.5,18.7,-000.0,0014.53,0004.73,0003.93
2022-06-26 14:39:00,,0839.2,5.00,0.00,30.7,29.6,00.0,39.5,32.5,19.0,-000.1,0015.02,0004.70,0003.92
2022-06-26 14:40:00,,0839.3,5.01,0.00,30.7,29.6,00.0,39.5,32.5,19.0,0000.3,0015.83,0004.69,0003.90
2022-06-26 14:41:00,,0839.2,5.00,0.00,30.7,29.6,00.0,39.5,32.5,18.5,0000.8,0015.95,0004.65,0003.89
2022-06-26 14:42:00,,0839.3,4.99,0.00,30.7,29.6,00.0,39.6,32.4,18.3,0000.2,0016.43,0004.66,0003.89
2022-06-26 14:43:00,,0839.3,5.00,0.00,30.7,29.6,00.0,39.6,32.5,18.2,0001.0,0016.75,0004.66,0003.89
2022-06-26 14:44:00,,0839.3,5.01,0.00,30.7,29.6,00.0,39.6,32.5,18.2,0001.4,0016.43,0004.68,0003.88
2022-06-26 14:45:00,,0839.3,5.00,0.00,30.7,29.6,00.0,39.6,32.4,18.1,0001.3,0015.78,0004.70,0003.88
2022-06-26 14:46:00,,0839.3,5.00,0.00,30.7,29.6,00.0,39.6,32.5,18.2,0000.3,0015.09,0004.72,0003.88
2022-06-26 14:47:00,,0839.3,5.01,0.00,30.7,29.6,00.0,39.6,32.4,18.1,0000.0,0014.97,0004.72,0003.86
2022-06-26 14:48:00,,0839.3,4.99,0.00,30.7,29.6,00.0,39.6,32.4,18.1,0000.0,0015.11,0004.71,0003.86
2022-06-26 14:49:00,,0839.3,5.01,0.00,30.7,29.6,00.0,39.6,32.5,18.0,0000.0,0014.14,0004.66,0003.85
2022-06-26 14:50:00,,0839.3,4.99,0.00,30.7,29.6,00.0,39.6,32.5,17.9,0000.0,0013.79,0004.69,0003.85
2022-06-26 14:51:00,,0839.3,5.00,0.00,30.7,29.6,00.0,39.6,32.5,17.9,0000.0,0013.71,0004.72,0003.86
2022-06-26 14:52:00,,0839.2,5.01,0.00,30.7,29.6,00.0,39.6,32.5,18.0,0000.0,0013.70,0004.72,0003.86
2022-06-26 14:53:00,,0839.3,5.00,0.00,30.7,29.6,00.0,39.6,32.5,18.2,0000.0,0013.87,0004.78,0003.86
2022-06-26 14:54:00,,0839.3,4.99,0.00,30.7,29.6,00.0,39.6,32.5,18.4,0000.0,0014.00,0004.80,0003.86
2022-06-26 14:55:00,,0839.3,5.01,0.00,30.7,29.6,00.0,39.6,32.5,18.2,0000.0,0013.75,0004.79,0003.87
2022-06-26 14:56:00,,0839.3,5.00,0.00,30.7,29.6,00.0,39.6,32.5,18.5,0000.0,0013.63,0004.78,0003.89
2022-06-26 14:57:00,,0839.3,4.99,0.00,30.7,29.6,00.0,39.6,32.5,18.6,0000.0,0013.53,0004.78,0003.90
2022-06-26 14:58:00,,0839.3,5.01,0.00,30.7,29.6,00.0,39.6,32.5,18.6,0000.0,0012.89,0004.76,0003.92
2022-06-26 14:59:00,,0839.3,5.00,0.00,30.7,29.7,00.0,39.6,32.5,18.4,0000.0,0012.59,0004.75,0003.93
